Timeline UpdatesTrip UpdatesNews PostsPvt PostsTravel TipsAdmin PostsConv PostsFollowed PostsChat RequestsBlog PostsPNR Posts

Disclaimer
Search
 
 
Wed Sep 17, 2014 19:07:55 ISTHomeTrainsΣChainsAtlasPNRForumGalleryNewsFAQTripsMembersLoginFeedback
No Recent News for this Train
Other Trains in the News **new
Latest...
.
Thu Apr 24, 2014 (08:49PM)
⇐ Return Journey: Train# 13006

13005/Howrah - Amritsar (Punjab) Mail

Time-Table HAS CHANGED.
Sep 01 (11:37PM)
Change Departure Station:
Change Arrival Station:
Post a Train Travel TipPost a Train Travel Tip **new
Post a Comment/Question/Picture/VideoPost a Comment/Question/Picture/Video
Pantry/Catering
✓ Pantry Car Avbl
✓ Catering Avbl
Tea: Rs 7; Samosa: Rs 15/pair.
RSA - Rake Sharing
No RSA.
Rake/Coach Composition
LOCO-SLR-GS-GS-S1-S2-S3-S4-S5-S6-S7-S8-S9-S10-PC-B1-B2-B3-A1-HA1-GS-MILITARY-SLR(Ladies)
Loco
HWH/MGS WAP-4 (HWH-MGS) SGUJ WDP-4B (MGS-LKO) GZB WAP-4/5 (LKO-ASR)
News    PNR    Forum    Time-Table    Availability    Fare Chart    Map    Arr/Dep History    Trips    Gallery    ΣChains    X/O    Timeline    
Travel Time: 12h 57m    20 halts    Distance: 743 km    Avg Speed: 57 km/hr
Type: Mail/Express
Zone: ER/Eastern
Departs @ 19:10
Platform# 8
SMTWTFS
Kolkata Howrah Junction/HWH 
Arrives @ 08:07 +1 night
Platform# 2
SMTWTFS
Mughal Sarai Junction/MGS 

20 halts. 175 intermediate Stations between Kolkata Howrah Junction and Mughal Sarai Junction

Show ALL intermediate Stations  Show Old Time-Table

#CodeStation NameX/OArrivesAvgDepartsAvgHaltPFDay#KmSpeedElevZoneAddress
1HWHKolkata Howrah Junction (23)»  -19:10-810.08610mERHowrah 711101, West Bengal
2BWNBarddhaman Junction (8)X  20:16-20:21-5m2194.47634mERDist - Barddhaman, West Bengal
3DGRDurgapur (5)  21:11-21:14-3m31157.99171mERDurgapur, West Bengal
4RNGRaniGanj (4)  21:30-21:31-1m--1182.26092mERRaniganj, West Bengal
5ASNAsansol Junction (7)X  21:49-21:54-5m31200.463113mERDist - Bardhaman, West Bengal
6CRJChittaranjan (3)X  22:17 22:18-22:19-2 1m31225.587182mERMihijam, Jharkhand
7MDPMadhupur Junction (4)X  22:58-23:02-4m11281.873254mER06432-224478, Jharkhand
8JSMEJasidih Junction (5)X  23:26-23:30-4m--1310.935271mERJasidih, Jharkhand
9JAJJhajha (4)X  00:45-00:50-5m--2355.086143mECRJhajha, Bihar
10KIULKiul Junction (5)  01:27-01:32-5m--2408.35753mECRDist. Lakhisarai, Bihar
11MKAMokama Junction (4)  02:08-02:12-4m--2442.57348mECRPatna, Bihar
12BKPBakhtiyarpur Junction (5)  02:48-02:50-2m--2486.45851mECRPatna, Bihar
13PNCPatna Saheb (3)  03:22 03:27-03:24 03:29-2m--2521.91459mECRPatna 800008, Bihar
14PNBEPatna Junction (10)X  04:10-04:20-10m62531.73857mECRPatna 800001, Bihar
15DNRDanapur (5)X  04:35-04:37-2m--2541.18258mECRKhagaul, Bihar
16ARAAra Junction (3)  05:06-05:11-5m12580.710163mECRarrah( 06182-233411), Bihar
17DUREDumraon (3)X  05:42-05:43-1m22632.86170mECRDumraon, Bihar
18BXRBuxar (3)X  05:59-06:03-4m22649.26767mECRBuxar, Bihar
19GMRGahmar (2)  06:21-06:22-1m--2669.36968mECRDistt: Ghazipur, Uttar Pradesh
20DLNDildarnagar Junction (2)X  06:36-06:38-2m22685.49072mECRDildarnagar, Uttar Pradesh
21ZNAZamania (2)X  06:48 06:47-06:49-1 2m12698.93477mECRGhazipur, Uttar Pradesh
22MGSMughal Sarai Junction (8)•X  08:07-08:27-20m22743.12483mECRMughalsarai 232101, Uttar Pradesh
23KEIKashi (3)X  08:55-08:56-1m12754.12085mNRVaranasi, Uttar Pradesh
24BSBVaranasi Junction (9)  09:12-09:27-15m82759.47282mNRVaranasi 221002, Uttar Pradesh
25BOYBhadohi (2)  10:04-10:05-1m--2803.96590mNRUttar Pradesh 221401, Uttar Pradesh
26JNHJanghai Junction (3)  10:33-10:34-1m--2834.35992mNRUttar Pradesh 212401, Uttar Pradesh
27BSEBadshahpur (2)  10:51-10:52-1m--2851.16693mNRMungra Badshahpur, Uttar Pradesh
28PBHPratapgarh Junction (3)X  11:25-11:30-5m22887.57297mNRPratapgarh, Uttar Pradesh
29AMEAmethi (2)  11:59-12:00-1m--2922.553107mNRAmethi., Uttar Pradesh
30GNGGauriGanj (2)  12:15-12:16-1m--2935.760110mNRSH 34, Uttar Pradesh
31JAISJais (2)X  12:34-12:36-2m--2953.851108mNRRae Bareli, Uttar Pradesh
32RBLRae Bareli Junction (4)X  13:10-13:15-5m--2982.663116mNRRaebareli, Uttar Pradesh
33BCNBachhrawan (2)X  13:45 13:44-13:47 13:46-2m--21013.230124mNRLucknow, Uttar Pradesh
34LKOLucknow Charbagh NR (9)XO  15:20-15:45-25m621060.563123mNR226004, Uttar Pradesh
35BLMBalamau Junction (4)  16:51-16:53-2m--21129.373139mNRBalamau, Uttar Pradesh
36HRIHardoi (5)  17:20-17:23-3m121162.363146mNRHardoi, Uttar Pradesh
37ROZARoza Junction (4)X  18:16-18:18-2m--21217.937156mNRShahjahanpur, Uttar Pradesh
38SPNShahjahanpur Junction (3)X  18:30-18:35-5m--21225.277156mNRShahjahanpur, Uttar Pradesh
39BEBareilly Junction (4)X  19:32 19:30-19:37 19:35-5m221295.771174mNRBareilly, Uttar Pradesh
40RMURampur Junction (3)X  20:17 20:28-20:18 20:33-1 5m--21358.839190mNRRampur, Uttar Pradesh
41MBMoradabad Junction (7)X  21:15-21:25-10m221386.065201mNRMoradabad, Uttar Pradesh
42DPRDhampur  22:20-22:22-2m--21445.859236mNRDhampur, Uttar Pradesh
43NGGNagina (3)O  22:40 22:39-22:42 22:40-2 1m--21462.534247mNRNagina, Uttar Pradesh
44NBDNajibabad Junction (3)X  23:20-23:25-5m221485.068269mNRNajibabad, Uttar Pradesh
45LRJLaksar Junction (4)  00:02-00:07-5m231526.963238mNRLaksar, Uttarakhand
46RKRoorkee (3)  00:21 00:24-00:26 00:25-5 1m331544.742264mNRRoorkee - 247667, Uttarakhand
47SRESaharanpur Junction (6)XO  01:15-01:25-10m--31579.462276mNRSaharanpur, Uttar Pradesh
48JUDYamunanagar-Jagadhri (3)  01:54-01:55-1m331609.551275mNRYamunanagar, Haryana
49UMBAmbala Cantt. Junction (7)XO  02:55-03:15-20m231660.556278mNRAmbala 133001, Haryana
50RPJRajpura Junction (3)X  03:45-03:47-2m131688.648272mNRNH-1, Punjab
51LDHLudhiana Junction (7)  05:35-05:45-10m331774.133246mNRLudhiana 141001, Punjab
52PHRPhillaur Junction (3)X  06:09-06:11-2m231787.275246mNRPhillaur, Punjab
53PGWPhagwara Junction (3)X  06:29-06:31-2m231809.870245mNRPhagwara, Punjab
54JRCJalandhar Cantt. Junction (3)X  06:45-06:47-2m131826.197239mNRNear Rama Mandi, Punjab
55JUCJalandhar City Junction (5)X  06:50-07:00-10m131830.949239mNRJalandhar 144001, Punjab
56BEASBeas Junction (2)X  07:44-07:46-2m131867.037238mNRBeas, Punjab
57ASRAmritsar Junction (5)  08:55--331910.1-233mNRAmritsar 143002, Punjab
Scroll to Top
Scroll to Bottom